www.pogodaiklimat.ru
ПОГОДА в Туамасине

Архив погоды в Туамасине (Мадагаскар)

Время
(UTC), дата
03 15.01
06 15.01
09 15.01
12 15.01
15 15.01
18 15.01
21 15.01
00 16.01
03 16.01
06 16.01
09 16.01
12 16.01
15 16.01
18 16.01
21 16.01
00 17.01
03 17.01
06 17.01
09 17.01
12 17.01
15 17.01
18 17.01
21 17.01
00 18.01
03 18.01
06 18.01
09 18.01
12 18.01
15 18.01
18 18.01
21 18.01
00 19.01
03 19.01
06 19.01
09 19.01
12 19.01
15 19.01
18 19.01
21 19.01
00 20.01
06 20.01
09 20.01
12 20.01
15 20.01
18 20.01
21 20.01
00 21.01
03 21.01
06 21.01
09 21.01
12 21.01
15 21.01
18 21.01
21 21.01
00 22.01
Ветер
(напр.,м/с)
Видим. Явления Облачность Т
(С)
Тd
(С)
f
(%)
Тe
(С)
Тes
(С)
Комфортность P
(гПа)
Po
(гПа)
Тmin
(С)
Tmax
(С)
R
(мм)
R24
(мм)
S
(см)
штиль 0 25 км 9/1 500 м
[Cu Sc Ci sp]
+23.8 +23.4 98 +32 +33 очень
душно
1007.8 1007.1
В 3 30 км 9/3 500 м
[Cu Sc Ci sp]
+30.3 +25.0 73 +43 +50 опасность
перегрева
1008.4 1007.7 +23.4 +31.8 1
В 3 30 км 9/4 500 м
[Cu Sc Ci sp]
+31.7 +26.2 73 +48 +57 опасность
перегрева
1006.8 1006.1
ЮЗ 2 9000 м гроза, ливневой дождь 9/9 210 м
[Cb cap]
+25.7 +25.1 96 +37 +38 очень
душно
1004.8 1004.1 22
З 1 20 км осадки на расстоянии {гроза, дождь} 9/5 210 м
[Cb cap Ci ing]
+25.6 +24.9 96 +36 +36 очень
душно
1005.8 1005.1 +32.5 22
штиль 0 20 км осадки на расстоянии {гроза, дождь} 9/9 210 м
[Cb cap]
+25.4 +24.8 96 +36 +36 очень
душно
1007.3 1006.7 +32.5 22
штиль 0 15 км в посл. час дождь 9/9 210 м
[Cu Sc]
+25.2 +24.6 96 +35 +35 очень
душно
1007.8 1007.1 5
ЮЗ 2 20 км осадки на расстоянии {дождь} 9/6 500 м
[Cu Sc Ci sp]
+24.2 +23.6 96 +33 +33 очень
душно
1006.7 1006.0 9
штиль 0 25 км 9/5 500 м
[Cu Sc Ci sp]
+23.7 +23.3 98 +32 +32 очень
душно
1008.3 1007.6 9
Ю 2 30 км 9/4 500 м
[Cu Sc Ac trans Ci sp]
+29.2 +23.1 70 +39 +44 очень
душно
1008.6 1007.9 +23.2 +32.5 30
ЮВ 4 30 км 8/4 500 м
[Cu Sc Ac trans Ci sp]
+30.8 +22.9 63 +41 +47 опасность
перегрева
1007.2 1006.5
Ю 4 25 км гроза без осадков 8/5 500 м
[Cb cap Ac trans Ci sp]
+29.5 +24.6 75 +42 +44 опасность
перегрева
1005.1 1004.4
С 2 25 км гроза без осадков 9/9 500 м
[Cb cap]
+27.7 +24.7 84 +39 +39 очень
душно
1007.0 1006.3 +32.2
С 2 8000 м слаб. ливневой дождь, в посл. час гроза 9/9 500 м
[Cb cap]
+25.9 +25.2 96 +37 +37 очень
душно
1009.5 1008.8 +32.2 2
штиль 0 10 км осадки на расстоянии {гроза} 9/9 500 м
[Cu Sc]
+24.8 +23.6 93 +34 +34 очень
душно
1008.5 1007.8 2
ЮЗ 3 25 км 9/9 500 м
[Cu Sc]
+24.5 +23.9 96 +33 +33 очень
душно
1007.8 1007.1
Ю 1 30 км 8/3 500 м
[Cu Sc Ac trans Ci sp]
+23.4 +22.7 96 +33 +33 очень
душно
1007.8 1007.1 2
ЮВ 3 35 км 8/4 500 м
[Cu Sc Ci sp]
+29.5 +25.3 78 +43 +49 опасность
перегрева
1009.0 1008.3 +23.1 +32.2 2
В 4 35 км 8/1 500 м
[Cu Sc Ci sp]
+30.0 +25.4 76 +44 +55 опасность
перегрева
1007.5 1006.8
В 4 20 км осадки на расстоянии 8/4 500 м
[Cb cap Ac trans Ci sp]
+30.2 +25.9 78 +45 +48 опасность
перегрева
1005.7 1005.0
СВ 2 10 км гроза без осадков 9/9 210 м
[Cb cap]
+28.6 +26.1 86 +43 +43 опасность
перегрева
1007.6 1006.9 +31.5
З 2 10 км гроза без осадков {дождь} 9/9 210 м
[Cb cap]
+26.8 +25.4 92 +39 +39 очень
душно
1009.5 1008.8 +31.5 0.3
штиль 0 7000 м гроза, ливневой дождь 9/9 210 м
[Cb cap]
+24.0 +23.4 96 +32 +32 очень
душно
1008.8 1008.1 20
ЮЗ 2 10 км гроза без осадков {дождь} 9/9 210 м
[Cb cap]
+24.0 +23.4 96 +32 +32 очень
душно
1008.1 1007.4 20
штиль 0 15 км осадки на расстоянии {гроза} 9/8 500 м
[Cu Sc Ac trans]
+23.9 +23.3 96 +32 +32 очень
душно
1009.8 1009.1 21
ЮЗ 2 30 км {гроза} 8/6 500 м
[Cu Sc Ci sp]
+26.9 +23.4 81 +36 +41 очень
душно
1010.3 1009.6 +23.3 +31.5 21
ЮВ 4 30 км 8/5 500 м
[Cu Sc Ci sp]
+31.0 +23.9 66 +43 +49 опасность
перегрева
1008.4 1007.7
Ю 5 15 км осадки на расстоянии 8/8 500 м
[Cb cap Ac trans Ci sp]
+29.8 +24.4 73 +42 +43 опасность
перегрева
1007.6 1006.9
ЮВ 2 9000 м гроза без осадков {дождь} 9/9 210 м
[Cb cap]
+27.6 +24.5 83 +39 +39 очень
душно
1007.8 1007.1 +31.4 0.0
З 2 4000 м гроза, ливневой дождь 9/9 210 м
[Cb cap]
+24.0 +23.3 96 +32 +32 очень
душно
1011.2 1010.5 +31.4 21
З 2 10 км в посл. час гроза {дождь} 9/9 500 м
[Cu Sc]
+23.6 +23.2 98 +32 +32 очень
душно
1009.8 1009.1 20
штиль 0 15 км осадки на расстоянии {гроза, дождь} 9/9 500 м
[Cu Sc]
+23.5 +23.2 98 +31 +31 очень
душно
1008.6 1007.9 20
штиль 0 25 км 8/5 500 м
[Cu Sc Ac trans Ci sp]
+23.5 +23.1 98 +31 +32 очень
душно
1009.7 1009.0 24
Ю 1 25 км 9/9 210 м
[Cu Sc]
+27.5 +24.7 85 +39 +41 очень
душно
1010.5 1009.8 +23.5 +31.4 24
ЮВ 3 25 км осадки на расстоянии 9/4 500 м
[Cu Sc Ac trans Ci sp]
+29.7 +24.5 74 +42 +48 опасность
перегрева
1008.5 1007.8
Ю 2 10 км гроза без осадков {дождь} 9/8 210 м
[Cb cap Ac trans]
+27.7 +25.3 87 +40 +42 очень
душно
1006.7 1006.0 3
Ю 2 5000 м гроза, ливневой дождь 10/10 210 м
[Cb cap]
+23.3 +22.9 98 +33 +33 очень
душно
1008.4 1007.7 +30.3 14
штиль 0 15 км в посл. час гроза {дождь} 9/9 210 м
[Cb cap]
+23.3 +22.9 98 +33 +33 очень
душно
1009.4 1008.7 +30.3 21
штиль 0 15 км осадки на расстоянии 9/9 500 м
[Cu Sc]
+23.0 +22.7 98 +32 +32 очень
душно
1008.4 1007.7 6
штиль 0 15 км осадки на расстоянии 9/9 500 м
[Cu Sc]
+23.2 +22.9 98 +32 +32 очень
душно
1007.4 1006.7
ЮЗ 5 15 км в посл. час дождь {морось} 9/8 210 м
[Cb cap Ac trans]
+25.6 +24.0 91 +35 +36 очень
душно
1008.4 1007.8 +23.0 +30.3 23
Ю 6 10 км осадки на расстоянии 9/8 500 м
[Cu Sc Ac trans]
+29.4 +22.1 65 +38 +39 очень
душно
1007.1 1006.4 0.9
ЮЗ 7 8000 м дождь {морось} 9/9 210 м
[Cb cap]
+26.4 +23.5 84 +36 +36 очень
душно
1006.2 1005.5 0.0
ЮЗ 6 6000 м слаб. дождь {морось} 9/9 210 м
[Cb cap]
+23.9 +23.2 96 +32 +32 очень
душно
1006.9 1006.2 +30.8 4
ЮЗ 6 6000 м дождь {морось} 9/9 210 м
[Cu Sc]
+23.4 +22.8 96 +33 +33 очень
душно
1008.4 1007.7 +30.8 7
ЮЗ 4 4000 м слаб. дождь 9/9 210 м
[Cu Sc]
+22.7 +22.4 98 +31 +31 очень
душно
1008.3 1007.6 21
ЮЗ 5 5000 м слаб. дождь 9/9 210 м
[Cu Sc]
+22.2 +21.9 98 +29 +29 очень
душно
1007.3 1006.6 42
ЮЗ 5 5000 м слаб. дождь 9/9 210 м
[Cu Sc]
+22.3 +21.9 98 +30 +30 очень
душно
1008.1 1007.4 76
ЮЗ 6 15 км осадки на расстоянии {дождь} 10/10 210 м
[Cu Sc]
+24.4 +21.7 85 +31 +31 очень
душно
1009.0 1008.3 +21.6 +30.8 83
ЮЗ 5 6000 м слаб. дождь 10/10 210 м
[Cu Sc]
+25.3 +23.0 87 +34 +34 очень
душно
1009.0 1008.3 2
ЮЗ 6 15 км осадки на расстоянии {дождь} 9/9 210 м
[Cu Sc]
+25.9 +23.0 84 +35 +35 очень
душно
1008.0 1007.3 0.9
ЮЗ 6 10 км осадки на расстоянии {дождь} 9/9 210 м
[Cu Sc]
+24.5 +22.9 91 +32 +32 очень
душно
1009.0 1008.3 +27.2 0.9
ЮЗ 5 10 км в посл. час дождь 10/10 210 м
[Cu Sc]
+23.7 +23.0 96 +31 +31 очень
душно
1009.8 1009.1 +27.2 1
ЮЗ 4 15 км осадки на расстоянии {дождь} 9/9 210 м
[Cu Sc]
+23.5 +22.7 95 +31 +31 очень
душно
1008.4 1007.7 0.8
ЮЗ 4 6000 м слаб. дождь 10/10 210 м
[Cu Sc]
+23.4 +22.7 96 +33 +33 очень
душно
1006.8 1006.1 27
Местоположение метеостанции Туамасина (Мадагаскар): широта -18.11 долгота 49.40 высота над уровнем моря 6 м.
В архиве по умолчанию представлена погода в Туамасине за последнюю неделю. Архивные данные за месяц целиком и за предыдущие месяцы, начиная с января 2011 года, Вы можете получить, выбрав интересующий диапазон дат из раскрывающегося списка и нажав кнопку "Найти!".
*Определитесь, кто Вы:
Внимание! Время в таблицах - всемирное. Для получения местного времени необходимо прибавить поправку, которая равна 3 ч.
Смотрите также архив погоды в соседних городах и на ближайших метеорологических станциях:
Партнеры нашего сайта:      
Пояснения к столбцам:
  • Ветер - указаны скорость ветра в м/с - средняя за 10 мин, порывы в срок и между сроками (в фигурных скобках) и направление, откуда дует ветер: С - северный,
  • СВ - северо-восточный, В - восточный, ЮВ - юго-восточный, Ю - южный, ЮЗ - юго-западный, З - западный, СЗ - северо-западный.
  • Видимость - горизонтальная дальность видимости в метрах или километрах. При видимости от 1 до 10 км при отсутствии осадков обычно наблюдается дымка, при ухудшении видимости до 1 км и менее - туман. В сухую погоду видимость может ухудшаться дымом, пылью или мглою.
  • Явления - указаны атмосферные явления, наблюдавшиеся в срок или в последний час перед сроком; фигурными скобками обозначены явления, наблюдавшиеся между сроками (за 1-3 часа до срока); квадратными скобками обозначены град или гололедные отложения с указанием их диаметра в мм.
  • Облачность - указаны через наклонную черту общая и нижняя облачность в баллах и высота нижней границы облаков в метрах; квадратными скобками обозначены формы облаков: Ci - перистые, Cs - перисто-слоистые, Cc - перисто-кучевые, Ac - высококучевые, As - высокослоистые, Sc - слоисто-кучевые, Ns - слоисто-дождевые, Cu - кучевые, Cb - кучево-дождевые. Подробнее классификацию облаков см. в Атласе облаков (PDF).
  • T - Температура воздуха - температура, измеренная на высоте 2 м над землей.
  • Td - Температура точки росы - температура, при понижении до которой содержащийся в воздухе водяной пар достигнет насыщения.
  • f - Относительная влажность воздуха - влажноcть воздуха, измеренная на высоте 2 м над землей.
  • Te - Эффективная температура - температура, которую ощущает одетый по сезону человек в тени. Характеристика душности погоды. При расчете учитывается влияние влажности воздуха и скорости ветра на теплоощущения человека.
  • Tes - Эффективная температура на солнце - температура, которую ощущает человек, с поправкой на солнечный нагрев. Характеристика знойности погоды. Зависит от высоты солнца над горизонтом, облачности и скорости ветра. Ночью, в пасмурную погоду, а также при ветре 12 м/с и более поправка равна нулю.
  • P - Атмосферное давление - приведенное к уровню моря атмосферное давление.
  • Po - Атмосферное давление - измеренное на уровне метеостанции атмосферное давление.
  • Tmin - Минимальная температура - минимум температуры воздуха на высоте 2 м над землей.
  • Tmax - Максимальная температура - максимум температуры воздуха на высоте 2 м над землей.
  • R - Количество осадков - Количество выпавших осадков за период времени, мм. При наведении курсора мыши на число - период времени, за который выпало указанное количество осадков.
  • R24 - Количество осадков - Количество выпавших осадков за 24 часа, мм.
  • S - Снежный покров - Высота снежного покрова, см. При наведении курсора мыши на число - состояние снежного покрова и степень покрытия местности в баллах.